User: anonymous
Location: Unspecified
(0.0000°N, 0.0000°E)
Time: 09:19:57
(UTC+02:00)
Language:

ISS - Orbit

View from above orbital plane
View from above orbital plane
View from above satellite
View from above satellite

Ground track
Ground track

The orbit data is extracted from the following two-line orbital elements,

1 25544U 98067A   14203.22513319  .00001727  00000-0  38079-4 0  7442
2 25544 051.6486 285.9067 0005259 282.0856 117.2992 15.50136483896764
Epoch (UTC): 22 July 2014 05:24:11
Eccentricity: 0.0005259
inclination: 51.6486°
perigee height: 413 km
apogee height: 420 km
right ascension of ascending node: 285.9067°
argument of perigee: 282.0856°
revolutions per day: 15.50136483
mean anomaly at epoch: 117.2992°
orbit number at epoch: 89676

The dashed part of the orbit path shows where the satellite is in the earth's shadow,  

DLR